Regional Weather Roundup
Issued by NWS

Home | Current Version | Previous Version | Graphics & Text | Print | Product List | Glossary On
Versions: 1 2 3 4 5 6 7 8 9 10 11 12 13 14 15 16 17 18 19 20 21 22 23 24 25 26 27 28 29 30 31 32 33 34 35 36 37 38 39 40 41 42 43 44 45 46 47 48 49 50
000
ASUS45 KTFX 040304
RWRMT
MONTANA REGIONAL WEATHER ROUNDUP
NATIONAL WEATHER SERVICE GREAT FALLS MT
900 PM MDT THU SEP 03 2015

NOTE: "FAIR" INDICATES FEW OR NO CLOUDS BELOW 12000 FEET WITH NO
SIGNIFICANT WEATHER AND/OR OBSTRUCTIONS TO VISIBILITY.

MTZ001>007-043-040400-
WEST OF THE DIVIDE

CITY           SKY/WX    TMP DP  RH WIND       PRES   REMARKS
KALISPELL      LGT RAIN  50  48  93 N5        29.98R
MISSOULA       MOCLDY    50  45  83 E10       29.99S
BUTTE          MOCLDY    47  36  65 W9G18     29.98R
MULLAN PASS    CLOUDY    40  37  89 CALM      30.00S
DEER LODGE       N/A     46  43  87 N5        30.04R
EUREKA           N/A     55  43  62 SE13G20     N/A
HAMILTON         N/A     50  46  87 SW2       29.99R
LIBBY            N/A     57  34  41 CALM      29.93R
$$

MTZ008-052>055-040400-
SOUTHWEST MONTANA

CITY           SKY/WX    TMP DP  RH WIND       PRES   REMARKS
BOZEMAN        MOCLDY    62  41  46 W10       29.87R
DILLON         CLOUDY    56  37  49 N10       29.90R
W YELLOWSTONE  MOCLDY    57  30  35 CALM      29.93S
$$

MTZ009-010-012-014-046-048-049-054-040400-
EAST SLOPES AND CENTRAL MONTANA

CITY           SKY/WX    TMP DP  RH WIND       PRES   REMARKS
CUT BANK       CLOUDY    50  47  89 SE6       29.97S
GREAT FALLS    LGT RAIN  50  48  93 CALM      30.00R
HELENA         CLOUDY    55  42  61 NW8       29.96R
$$

MTZ011-013-016-021-045-047-050-051-040400-
NORTH CENTRAL MONTANA

CITY           SKY/WX    TMP DP  RH WIND       PRES   REMARKS
HAVRE          CLOUDY    54  49  83 N13       29.95F
LEWISTOWN      PTCLDY    58  39  49 NW8       29.92R
N BAR RANCH      N/A     59  39  47 VRB6      29.93S
CHINOOK          N/A     55  48  76 NW5       29.92R
FORT BENTON      N/A     54  48  82 NW9       29.97R
$$

MTZ017>020-022>027-061-062-040400-
NORTHEAST MONTANA

CITY           SKY/WX    TMP DP  RH WIND       PRES   REMARKS
GLASGOW        PTCLDY    67  36  31 NE18      29.85R
JORDAN           N/A     70  40  33 NE17G24   29.81S
SIDNEY         PTCLDY    72  50  46 NW13        N/A
WOLF POINT     MOCLDY    71  37  28 NE17      29.81R
PLENTYWOOD       N/A     68  41  37 N17       29.82R
POPLAR           N/A     70  39  32 N14       29.81R
$$

MTZ028>42-056>058-040400-
SOUTHCENTRAL AND SOUTHEAST MONTANA

CITY           SKY/WX    TMP DP  RH WIND       PRES   REMARKS
BAKER          MOCLDY    70  49  47 NE8       29.76S
BILLINGS       CLOUDY    71  39  31 NE17      29.82S
LIVINGSTON     PTCLDY    65  37  35 E10       29.85R
MILES CITY     LGT RAIN  74  51  44 NE13      29.77R
FORSYTH          N/A     73  43  33 NW6       29.77R
$$

REGIONAL REPORTS...DAKOTAS

CITY           SKY/WX    TMP DP  RH WIND       PRES   REMARKS
WILLISTON      MOCLDY    73  53  49 N12       29.78R
MINOT          PTCLDY    76  70  82 NW9       29.71R
DICKINSON      MOCLDY    74  56  53 NE7       29.73S
BISMARCK       CLOUDY    88  47  24 S13       29.69R
GRAND FORKS    MOCLDY    82  72  71 S21G30    29.74R
FARGO          PTCLDY    82  73  74 SE14G24   29.79R
BUFFALO SD       N/A     75  51  43 NE8       29.68F
RAPID CITY     MOCLDY    81  51  35 S24G36    29.78R
$$

REGIONAL REPORTS...WYOMING/IDAHO/WASHINGTON

CITY           SKY/WX    TMP DP  RH WIND       PRES   REMARKS
GILLETTE       CLOUDY    80  40  23 S20       29.78R
SHERIDAN       CLOUDY    69  40  34 W14       29.83R
BUFFALO WY     CLOUDY    68  42  38 NW20G26   29.87R
CODY           MOCLDY    63  43  48 NE9       29.87R
YELLOWSTONE LA   N/A     52  38  58 NW3       30.04R
IDAHO FALLS    CLOUDY    67  49  52 E9        29.85R
SALMON         MOCLDY    54  39  58 CALM      29.92R
BOISE          MOCLDY    66  38  35 NW6       29.84S
SPOKANE        PTCLDY    59  28  30 SW3       29.92S
$$

REGIONAL REPORTS...ALBERTA

CITY           SKY/WX    TMP DP  RH WIND       PRES   REMARKS
$$

REGIONAL REPORTS...SASKATCHEWAN

CITY           SKY/WX    TMP DP  RH WIND       PRES   REMARKS
SWIFT CURRENT  LGT RAIN  55  41  58 N8        29.97R
$$


USA.gov is the U.S. government's official web portal to all federal, state and local government web resources and services.